Location: Feigenhofen
(48.4939°N, 10.7793°E)
Time: 23:11:26
(UTC+00:00)

Cosmos 371 Rocket - Pass Details

Date: 26 May 2022
Orbit: 684 x 697 km, 74.0° (Epoch: 24 June)

Event Time Altitude Azimuth Distance (km) Brightness Sun altitude
Exits shadow 01:06:04 19° 247° (WSW) 1,616 4.7 -16.0°
Maximum altitude 01:08:54 36° 302° (WNW) 1,108 4.4 -15.8°
Drops below altitude 10° 01:13:23 10° 9° (N) 2,159 7.0 -15.5°
Sets 01:15:52 0° 18° (NNE) 3,077 8.3 -15.3°
